Showing default

TYVAK-182A, 48271

Orbit data source: Space-Track

TYVAK-182A, 48271 is an Italian payload satellite in SSO that was launched on Thu, 29 Apr 2021 UTC via a VEGA launch vehicle from the French Guiana (FRGUI). Payload-class satellites include a variety of spacecraft equipped with specific instruments for various scientific and technological missions. These include communications satellites like Starlink; space stations such as the ISS; scientific satellites like the Hubble; Earth observation satellites from companies like Planet Labs, Umbra, and HawkEye 360; GPS; miniature CubeSats for education and research; and military/defense satellites.

Loading next visibility...
Identifier
48271, 2021-034D
Orbit
SSO
Country
Flag of ITIT
Related business
Manufacturer
Tyvak Intl
Mission
Operational Commercial Communications
Bus & Motor
CUBESAT 6U, Unknown motor
Mass
10 kg wet, 10 kg dry
Launch date (UTC)
2021-04-29 (5 years ago)
Launch vehicle
VEGA
Launch site
French Guiana (FRGUI)
Object type
Payload
Rocket body
Debris
Shape & HBR
Box + 1 Tether, 0.3 m
Radar Cross Section
0.035 m², Medium (>0.1 m² and < 1m²)

Expand to show TLE details & history
Last TLE update: 3 days ago

TLE from 3 days ago
0 TYVAK-182A
1 48271U 21034D   26170.72191491  .00004330  00000-0  29973-3 0  9995
2 48271  97.5710 229.5952 0004899 331.6538  28.4421 15.06182474280218
Epoch: 2026-06-19T17:19Z
TLE epoch observation values (Epoch: 2026-06-19T17:19:33.448Z)
Latitude
-0.0001°
Longitude
61.75903°
Altitude
547.961 km
Speed
7.59 km/s
True Right ascension
15h 18m 22s
True Declination
0° 00' 00"
Sunlit
Object was in full shadow at epoch
Visualization orbit readout
Latitude
Unknown
Longitude
Unknown
Altitude
Unknown
Speed
Unknown
Apparent Right ascension
Unknown
Apparent Declination
Unknown
Sunlit
N/A
Visualization observer readout
Local Sidereal Time
21:34:49
Azimuth
Unknown
Elevation
Unknown
Doppler factor
Unknown
Orbital elements
Apogee altitude
548.261 km
Perigee altitude
541.478 km
Semi-major axis
6,923.007 km
Eccentricity
0.00049
Inclination
97.571°
RAAN
229.5952°
Arg. of periapsis
331.6538°
True anomaly
28.46885°
Mean anomaly
28.4421°
Eccentric anomaly
28.45547°
Mean motion
3.76791 °/min
Orbital period
95.54 mins
BSTAR
0.00029973
Loading maneuver chart data...
Computing Atmospheric mass density...
Loading historical data...
Loading historical data...
Loading historical data...
Loading historical data...
Loading historical data...
Loading historical data...
Loading historical data...
Other satellites on launch #34 in the year 2021 (2021-04-29 UTC)

Documentation

Showing up to 5 results
|